Буштына

Украина / Закарпатская область     48°03′22″N   23°29′39″E
темп.,
°C
ветер,
м/с
пор.,
м/с
влажн.,
%
обл.,
%
осадки,
мм/ч
давл.,
гПа
погр.,
м
6 мая, чт
чт600:00+11зюз399382 1.4 1005393
03:00+7юз4697100 1.9 1008271
06:00+5юз3597100 0.0 1012316
09:00+6юз239489 0.1 1015367
12:00+9юз458067 0.8 1015914
15:00+12зюз685399 1.1 10151674
18:00+12зюз586241 0.0 10141542
21:00+7ю228099 0.0 101518
7 мая, пт
пт700:00+6юв2276100 0.0 101422
03:00+7вюв227079 0.0 101338
06:00+7вюв2468100 0.0 101096
09:00+7вюв3595100 3.6 1010156
12:00+8ююв1397100 5.5 1009193
15:00+9ююв1197100 10.8 1009124
18:00+9зюз3697100 6.3 1010461
21:00+8ююз2296100 9.1 101128
8 мая, сб
сб800:00+8ююз3496100 0.9 1012162
03:00+6юз2398100 1.5 101478
06:00+4юз119438 0.1 101719
09:00+6з23773 0.1 1019484
12:00+9з345913 0.0 10201382
15:00+11зсз555184 0.1 10212106
18:00+10зсз445514 0.0 10211552
21:00+5юв11800 0.1 102310
9 мая, вс
вс900:00+4вюв227660 0.0 102512
03:00+3в2278100 0.0 102618
06:00+3вюв227948 0.0 102628
09:00+9в116541 0.0 1026341
12:00+13зюз22526 0.0 10261434
15:00+15зюз23485 0.0 10241581
18:00+15з225433 0.0 1023893
21:00+9в01785 0.0 102310
10 мая, пн
пн1000:00+7в22755 0.0 102416
03:00+6в32665 0.0 102425
06:00+5в22645 0.0 102425
09:00+12всв23611 0.0 1023209
12:00+18ссв02520 0.0 1021810
15:00+21з22490 0.0 10201144
18:00+20зсз22600 0.0 1019653
21:00+13в11810 0.0 101911